| time (UTC) | temp F | wind direction | speed MPH | gust MPH | rain 1hr in | rain 24hr in | rain mn in | humidity % | barometer mb |
| 20260831150556 | 91 | 145 | 1.0 | 6.0 | 0.00 | 0.00 | 0.00 | 62 | 1023.6 |
| 20260831150052 | 90 | 223 | 4.0 | 6.0 | 0.00 | 0.00 | 0.00 | 65 | 1023.7 |
| 20260831145546 | 90 | 153 | 1.0 | 2.0 | 0.00 | 0.00 | 0.00 | 65 | 1023.9 |
| 20260831145042 | 89 | 235 | 1.0 | 5.0 | 0.00 | 0.00 | 0.00 | 67 | 1023.7 |
| 20260831144538 | 89 | 258 | 1.0 | 3.0 | 0.00 | 0.00 | 0.00 | 68 | 1023.8 |
| 20260831144033 | 88 | 142 | 0.0 | 3.0 | 0.00 | 0.00 | 0.00 | 70 | 1023.7 |
| 20260831143527 | 87 | 187 | 1.0 | 3.0 | 0.00 | 0.00 | 0.00 | 71 | 1023.9 |
| 20260831143023 | 86 | 109 | 0.0 | 5.0 | 0.00 | 0.00 | 0.00 | 72 | 1023.7 |
| 20260831142520 | 87 | 141 | 1.0 | 6.0 | 0.00 | 0.00 | 0.00 | 71 | 1023.7 |
| 20260831142015 | 86 | 148 | 2.0 | 2.0 | 0.00 | 0.00 | 0.00 | 71 | 1023.7 |
| 20260831141513 | 86 | 133 | 2.0 | 3.0 | 0.00 | 0.00 | 0.00 | 72 | 1023.8 |
| 20260831141008 | 86 | 135 | 2.0 | 3.0 | 0.00 | 0.00 | 0.00 | 73 | 1023.7 |
| 20260831140503 | 86 | 156 | 0.0 | 3.0 | 0.00 | 0.00 | 0.00 | 75 | 1023.6 |
| 20260831140002 | 85 | 279 | 1.0 | 1.0 | 0.00 | 0.00 | 0.00 | 74 | 1023.7 |
| 20260831135500 | 84 | 214 | 2.0 | 2.0 | 0.00 | 0.00 | 0.00 | 75 | 1023.8 |
| 20260831134955 | 83 | 141 | 1.0 | 3.0 | 0.00 | 0.00 | 0.00 | 77 | 1023.8 |
| 20260831134452 | 83 | 236 | 2.0 | 3.0 | 0.00 | 0.00 | 0.00 | 78 | 1023.5 |
| 20260831133951 | 82 | 138 | 0.0 | 1.0 | 0.00 | 0.00 | 0.00 | 79 | 1023.5 |
| 20260831133446 | 82 | 122 | 2.0 | 2.0 | 0.00 | 0.00 | 0.00 | 79 | 1023.5 |
| 20260831132941 | 82 | 127 | 1.0 | 2.0 | 0.00 | 0.00 | 0.00 | 80 | 1023.5 |
| 20260831132437 | 81 | 169 | 1.0 | 1.0 | 0.00 | 0.00 | 0.00 | 82 | 1023.7 |
| 20260831131936 | 80 | 125 | 0.0 | 1.0 | 0.00 | 0.00 | 0.00 | 86 | 1023.6 |
| 20260831131431 | 78 | 134 | 0.0 | 1.0 | 0.00 | 0.00 | 0.00 | 89 | 1023.5 |
| 20260831130927 | 77 | 139 | 0.0 | 1.0 | 0.00 | 0.00 | 0.00 | 92 | 1023.8 |
| 20260831130422 | 75 | 181 | 0.0 | 1.0 | 0.00 | 0.00 | 0.00 | 96 | 1023.5 |
| 20260831125922 | 74 | 266 | 0.0 | 2.0 | 0.00 | 0.00 | 0.00 | 99 | 1023.5 |
| 20260831125416 | 74 | 129 | 0.0 | 0.0 | 0.00 | 0.00 | 0.00 | 99 | 1023.5 |
| 20260831124912 | 73 | 130 | 0.0 | 1.0 | 0.00 | 0.00 | 0.00 | 99 | 1023.5 |
| 20260831124408 | 73 | 131 | 1.0 | 1.0 | 0.00 | 0.00 | 0.00 | 99 | 1023.5 |
| 20260831123908 | 72 | 118 | 0.0 | 1.0 | 0.00 | 0.00 | 0.00 | 99 | 1023.3 |
| 20260831123407 | 72 | 126 | 0.0 | 0.0 | 0.00 | 0.00 | 0.00 | 99 | 1023.2 |
| 20260831122902 | 72 | 123 | 0.0 | 0.0 | 0.00 | 0.00 | 0.00 | 99 | 1023.3 |
| 20260831122357 | 71 | 121 | 0.0 | 0.0 | 0.00 | 0.00 | 0.00 | 99 | 1023.2 |
| 20260831121852 | 71 | 122 | 0.0 | 0.0 | 0.00 | 0.00 | 0.00 | 99 | 1023.2 |
| 20260831121348 | 70 | 123 | 0.0 | 0.0 | 0.00 | 0.00 | 0.00 | 99 | 1023.1 |
| 20260831120844 | 70 | 118 | 0.0 | 0.0 | 0.00 | 0.00 | 0.00 | 99 | 1023.1 |
| 20260831120338 | 70 | 125 | 0.0 | 0.0 | 0.00 | 0.00 | 0.00 | 99 | 1023.2 |
| 20260831115833 | 69 | 124 | 0.0 | 0.0 | 0.00 | 0.00 | 0.00 | 99 | 1023.2 |
| 20260831115330 | 69 | 125 | 0.0 | 0.0 | 0.00 | 0.00 | 0.00 | 99 | 1023.1 |
| 20260831114829 | 69 | 125 | 0.0 | 0.0 | 0.00 | 0.00 | 0.00 | 99 | 1022.9 |
| 20260831114328 | 69 | 122 | 0.0 | 0.0 | 0.00 | 0.00 | 0.00 | 99 | 1022.9 |
| 20260831113824 | 69 | 123 | 0.0 | 0.0 | 0.00 | 0.00 | 0.00 | 99 | 1022.7 |
| 20260831113323 | 69 | 121 | 0.0 | 0.0 | 0.00 | 0.00 | 0.00 | 99 | 1022.9 |
| 20260831112818 | 68 | 119 | 0.0 | 0.0 | 0.00 | 0.00 | 0.00 | 99 | 1022.7 |
| 20260831112313 | 68 | 119 | 0.0 | 0.0 | 0.00 | 0.00 | 0.00 | 99 | 1022.8 |
| 20260831111808 | 68 | 118 | 0.0 | 0.0 | 0.00 | 0.00 | 0.00 | 99 | 1022.7 |
| 20260831111259 | 68 | 120 | 0.0 | 0.0 | 0.00 | 0.00 | 0.00 | 99 | 1022.8 |
| 20260831110754 | 69 | 119 | 0.0 | 0.0 | 0.00 | 0.00 | 0.00 | 99 | 1022.6 |
| 20260831110249 | 69 | 119 | 0.0 | 0.0 | 0.00 | 0.00 | 0.00 | 99 | 1022.3 |
| 20260831105747 | 69 | 119 | 0.0 | 0.0 | 0.00 | 0.00 | 0.00 | 99 | 1022.3 |
| 20260831105243 | 69 | 119 | 0.0 | 0.0 | 0.00 | 0.00 | 0.00 | 99 | 1022.5 |
| 20260831104743 | 69 | 119 | 0.0 | 0.0 | 0.00 | 0.00 | 0.00 | 99 | 1022.3 |
| 20260831104240 | 69 | 119 | 0.0 | 0.0 | 0.00 | 0.00 | 0.00 | 99 | 1022.1 |
| 20260831103735 | 69 | 119 | 0.0 | 0.0 | 0.00 | 0.00 | 0.00 | 99 | 1022.4 |
| 20260831103230 | 69 | 119 | 0.0 | 0.0 | 0.00 | 0.00 | 0.00 | 99 | 1022.3 |
| 20260831102730 | 69 | 119 | 0.0 | 0.0 | 0.00 | 0.00 | 0.00 | 99 | 1022.3 |
| 20260831102225 | 69 | 119 | 0.0 | 0.0 | 0.00 | 0.00 | 0.00 | 99 | 1022.3 |
| 20260831101720 | 69 | 118 | 0.0 | 0.0 | 0.00 | 0.00 | 0.00 | 99 | 1022.0 |
| 20260831101216 | 69 | 119 | 0.0 | 0.0 | 0.00 | 0.00 | 0.00 | 99 | 1022.1 |
| 20260831100712 | 69 | 120 | 0.0 | 0.0 | 0.00 | 0.00 | 0.00 | 99 | 1022.0 |
| 20260831100208 | 69 | 127 | 0.0 | 0.0 | 0.00 | 0.00 | 0.00 | 99 | 1022.0 |
| 20260831095706 | 69 | 127 | 0.0 | 0.0 | 0.00 | 0.00 | 0.00 | 99 | 1021.6 |
| 20260831095201 | 69 | 127 | 0.0 | 0.0 | 0.00 | 0.00 | 0.00 | 99 | 1021.7 |
| 20260831094656 | 69 | 127 | 0.0 | 0.0 | 0.00 | 0.00 | 0.00 | 99 | 1021.8 |
| 20260831094152 | 69 | 127 | 0.0 | 0.0 | 0.00 | 0.00 | 0.00 | 99 | 1021.6 |
| 20260831093648 | 69 | 127 | 0.0 | 0.0 | 0.00 | 0.00 | 0.00 | 99 | 1021.6 |
| 20260831093143 | 69 | 127 | 0.0 | 0.0 | 0.00 | 0.00 | 0.00 | 99 | 1021.4 |
| 20260831092639 | 69 | 127 | 0.0 | 0.0 | 0.00 | 0.00 | 0.00 | 99 | 1021.7 |
| 20260831092135 | 69 | 127 | 0.0 | 0.0 | 0.00 | 0.00 | 0.00 | 99 | 1021.6 |
| 20260831091634 | 69 | 127 | 0.0 | 0.0 | 0.00 | 0.00 | 0.00 | 99 | 1021.8 |
| 20260831091130 | 69 | 127 | 0.0 | 0.0 | 0.00 | 0.00 | 0.00 | 99 | 1021.8 |
| 20260831090625 | 69 | 127 | 0.0 | 0.0 | 0.00 | 0.00 | 0.00 | 99 | 1021.6 |
| 20260831090121 | 69 | 127 | 0.0 | 0.0 | 0.00 | 0.00 | 0.00 | 99 | 1021.7 |
| 20260831085616 | 69 | 127 | 0.0 | 0.0 | 0.00 | 0.00 | 0.00 | 99 | 1021.6 |
| 20260831085112 | 69 | 127 | 0.0 | 0.0 | 0.00 | 0.00 | 0.00 | 99 | 1021.7 |
| 20260831084608 | 69 | 127 | 0.0 | 0.0 | 0.00 | 0.00 | 0.00 | 99 | 1021.4 |
| 20260831084103 | 69 | 127 | 0.0 | 0.0 | 0.00 | 0.00 | 0.00 | 99 | 1021.5 |
| 20260831083559 | 69 | 127 | 0.0 | 0.0 | 0.00 | 0.00 | 0.00 | 99 | 1021.4 |
| 20260831083054 | 69 | 128 | 0.0 | 0.0 | 0.00 | 0.00 | 0.00 | 99 | 1021.4 |
| 20260831082553 | 69 | 121 | 0.0 | 0.0 | 0.00 | 0.00 | 0.00 | 99 | 1021.5 |
| 20260831082048 | 69 | 124 | 0.0 | 0.0 | 0.00 | 0.00 | 0.00 | 99 | 1021.5 |
| 20260831081544 | 69 | 125 | 0.0 | 0.0 | 0.00 | 0.00 | 0.00 | 99 | 1021.3 |
| 20260831081035 | 68 | 125 | 0.0 | 0.0 | 0.00 | 0.00 | 0.00 | 99 | 1021.5 |
| 20260831080535 | 69 | 123 | 0.0 | 0.0 | 0.00 | 0.00 | 0.00 | 99 | 1021.5 |
| 20260831080030 | 69 | 123 | 0.0 | 0.0 | 0.00 | 0.00 | 0.00 | 99 | 1021.3 |
| 20260831075525 | 69 | 123 | 0.0 | 0.0 | 0.00 | 0.00 | 0.00 | 99 | 1021.4 |
| 20260831075021 | 69 | 123 | 0.0 | 0.0 | 0.00 | 0.00 | 0.00 | 99 | 1021.4 |
| 20260831074520 | 69 | 123 | 0.0 | 0.0 | 0.00 | 0.00 | 0.00 | 99 | 1021.4 |
| 20260831074020 | 69 | 123 | 0.0 | 0.0 | 0.00 | 0.00 | 0.00 | 99 | 1021.5 |
| 20260831073515 | 69 | 123 | 0.0 | 0.0 | 0.00 | 0.00 | 0.00 | 99 | 1021.4 |
| 20260831073014 | 69 | 123 | 0.0 | 0.0 | 0.00 | 0.00 | 0.00 | 99 | 1021.4 |
| 20260831072510 | 70 | 123 | 0.0 | 0.0 | 0.00 | 0.00 | 0.00 | 99 | 1021.4 |
| 20260831072006 | 70 | 123 | 0.0 | 0.0 | 0.00 | 0.00 | 0.00 | 99 | 1021.4 |
| 20260831071505 | 70 | 123 | 0.0 | 0.0 | 0.00 | 0.00 | 0.00 | 99 | 1021.5 |
| 20260831071000 | 70 | 123 | 0.0 | 0.0 | 0.00 | 0.00 | 0.00 | 99 | 1021.4 |
| 20260831070458 | 70 | 123 | 0.0 | 0.0 | 0.00 | 0.00 | 0.00 | 99 | 1021.7 |
| 20260831065958 | 70 | 123 | 0.0 | 0.0 | 0.00 | 0.00 | 0.00 | 99 | 1021.6 |
| 20260831065457 | 70 | 123 | 0.0 | 0.0 | 0.00 | 0.00 | 0.00 | 99 | 1021.6 |
| 20260831064952 | 70 | 123 | 0.0 | 0.0 | 0.00 | 0.00 | 0.00 | 99 | 1021.7 |
| 20260831064447 | 70 | 123 | 0.0 | 0.0 | 0.00 | 0.00 | 0.00 | 99 | 1021.8 |
| 20260831063942 | 70 | 123 | 0.0 | 0.0 | 0.00 | 0.00 | 0.00 | 99 | 1021.8 |
| 20260831063437 | 70 | 123 | 0.0 | 0.0 | 0.00 | 0.00 | 0.00 | 99 | 1021.7 |
| 20260831062931 | 70 | 123 | 0.0 | 0.0 | 0.00 | 0.00 | 0.00 | 99 | 1021.9 |
| 20260831062429 | 70 | 123 | 0.0 | 0.0 | 0.00 | 0.00 | 0.00 | 99 | 1022.0 |
| 20260831061926 | 70 | 123 | 0.0 | 0.0 | 0.00 | 0.00 | 0.00 | 99 | 1021.8 |
| 20260831061425 | 70 | 123 | 0.0 | 0.0 | 0.00 | 0.00 | 0.00 | 99 | 1021.9 |
| 20260831060921 | 70 | 123 | 0.0 | 0.0 | 0.00 | 0.00 | 0.00 | 99 | 1021.9 |
| 20260831060416 | 70 | 124 | 0.0 | 0.0 | 0.00 | 0.00 | 0.00 | 99 | 1021.8 |
| 20260831055915 | 70 | 123 | 0.0 | 0.0 | 0.00 | 0.00 | 0.00 | 99 | 1021.9 |
| 20260831055410 | 70 | 123 | 0.0 | 0.0 | 0.00 | 0.00 | 0.00 | 99 | 1021.9 |
| 20260831054906 | 70 | 123 | 0.0 | 0.0 | 0.00 | 0.00 | 0.00 | 99 | 1022.0 |
| 20260831054401 | 70 | 122 | 0.0 | 0.0 | 0.00 | 0.00 | 0.00 | 99 | 1022.0 |
| 20260831053859 | 70 | 122 | 0.0 | 0.0 | 0.00 | 0.00 | 0.00 | 99 | 1022.0 |
| 20260831053357 | 70 | 122 | 0.0 | 0.0 | 0.00 | 0.00 | 0.00 | 99 | 1021.9 |
| 20260831052852 | 71 | 122 | 0.0 | 0.0 | 0.00 | 0.00 | 0.00 | 99 | 1021.9 |
| 20260831052346 | 71 | 122 | 0.0 | 0.0 | 0.00 | 0.00 | 0.00 | 99 | 1021.9 |
| 20260831051845 | 71 | 122 | 0.0 | 0.0 | 0.00 | 0.00 | 0.00 | 99 | 1021.8 |
| 20260831051343 | 71 | 122 | 0.0 | 0.0 | 0.00 | 0.00 | 0.00 | 99 | 1021.8 |
| 20260831050838 | 71 | 123 | 0.0 | 0.0 | 0.00 | 0.00 | 0.00 | 99 | 1021.9 |
| 20260831050337 | 71 | 123 | 0.0 | 0.0 | 0.00 | 0.00 | 0.00 | 99 | 1021.8 |
| 20260831045832 | 71 | 123 | 0.0 | 0.0 | 0.00 | 0.00 | 0.00 | 99 | 1022.0 |
| 20260831045326 | 71 | 123 | 0.0 | 0.0 | 0.00 | 0.00 | 0.00 | 99 | 1021.8 |
| 20260831044821 | 71 | 123 | 0.0 | 0.0 | 0.00 | 0.00 | 0.00 | 99 | 1021.8 |
| 20260831044316 | 71 | 123 | 0.0 | 0.0 | 0.00 | 0.00 | 0.00 | 99 | 1021.9 |
| 20260831043812 | 71 | 123 | 0.0 | 0.0 | 0.00 | 0.00 | 0.00 | 99 | 1022.0 |
| 20260831043311 | 71 | 120 | 0.0 | 0.0 | 0.00 | 0.00 | 0.00 | 99 | 1021.9 |
| 20260831042806 | 72 | 120 | 0.0 | 0.0 | 0.00 | 0.00 | 0.00 | 99 | 1021.9 |
| 20260831042300 | 72 | 120 | 0.0 | 0.0 | 0.00 | 0.00 | 0.00 | 99 | 1022.1 |
| 20260831041756 | 72 | 120 | 0.0 | 0.0 | 0.00 | 0.00 | 0.00 | 99 | 1022.1 |
| 20260831041255 | 72 | 120 | 0.0 | 0.0 | 0.00 | 0.00 | 0.00 | 99 | 1022.1 |
| 20260831040750 | 72 | 120 | 0.0 | 0.0 | 0.00 | 0.00 | 0.00 | 98 | 1021.8 |
| 20260831040249 | 72 | 120 | 0.0 | 0.0 | 0.00 | 0.00 | 0.00 | 98 | 1021.8 |
| 20260831035748 | 72 | 120 | 0.0 | 0.0 | 0.00 | 0.00 | 0.00 | 98 | 1021.9 |
| 20260831035247 | 72 | 120 | 0.0 | 0.0 | 0.00 | 0.00 | 0.00 | 98 | 1021.7 |
| 20260831034746 | 72 | 120 | 0.0 | 0.0 | 0.00 | 0.00 | 0.00 | 98 | 1021.8 |
| 20260831034242 | 72 | 120 | 0.0 | 0.0 | 0.00 | 0.00 | 0.00 | 97 | 1021.9 |
| 20260831033737 | 72 | 120 | 0.0 | 0.0 | 0.00 | 0.00 | 0.00 | 97 | 1021.7 |
| 20260831033237 | 72 | 120 | 0.0 | 0.0 | 0.00 | 0.00 | 0.00 | 97 | 1021.8 |
| 20260831032732 | 72 | 120 | 0.0 | 0.0 | 0.00 | 0.00 | 0.00 | 97 | 1021.7 |
| 20260831032227 | 72 | 122 | 0.0 | 0.0 | 0.00 | 0.00 | 0.00 | 97 | 1022.0 |
| 20260831031722 | 72 | 120 | 0.0 | 0.0 | 0.00 | 0.00 | 0.00 | 96 | 1021.9 |
| 20260831031217 | 73 | 120 | 0.0 | 0.0 | 0.00 | 0.00 | 0.00 | 96 | 1021.8 |
| 20260831030716 | 73 | 120 | 0.0 | 0.0 | 0.00 | 0.00 | 0.00 | 96 | 1021.7 |
| 20260831030215 | 73 | 120 | 0.0 | 0.0 | 0.00 | 0.00 | 0.00 | 96 | 1021.9 |
| 20260831025714 | 73 | 120 | 0.0 | 0.0 | 0.00 | 0.00 | 0.00 | 95 | 1022.1 |
| 20260831025209 | 73 | 120 | 0.0 | 0.0 | 0.00 | 0.00 | 0.00 | 95 | 1021.9 |
| 20260831024705 | 73 | 120 | 0.0 | 0.0 | 0.00 | 0.00 | 0.00 | 95 | 1021.9 |
| 20260831024203 | 73 | 120 | 0.0 | 0.0 | 0.00 | 0.00 | 0.00 | 95 | 1021.9 |
| 20260831023701 | 73 | 120 | 0.0 | 0.0 | 0.00 | 0.00 | 0.00 | 94 | 1021.7 |
| 20260831023155 | 74 | 120 | 0.0 | 0.0 | 0.00 | 0.00 | 0.00 | 94 | 1021.9 |
| 20260831022651 | 74 | 121 | 0.0 | 0.0 | 0.00 | 0.00 | 0.00 | 93 | 1021.8 |
| 20260831022145 | 74 | 121 | 0.0 | 0.0 | 0.00 | 0.00 | 0.00 | 93 | 1021.8 |
| 20260831021644 | 74 | 120 | 0.0 | 0.0 | 0.00 | 0.00 | 0.00 | 93 | 1021.6 |
| 20260831021134 | 74 | 120 | 0.0 | 0.0 | 0.00 | 0.00 | 0.00 | 92 | 1021.7 |
| 20260831020630 | 74 | 120 | 0.0 | 0.0 | 0.00 | 0.00 | 0.00 | 91 | 1021.6 |
| 20260831020125 | 75 | 120 | 0.0 | 0.0 | 0.00 | 0.00 | 0.00 | 91 | 1021.2 |
| 20260831015620 | 75 | 120 | 0.0 | 0.0 | 0.00 | 0.00 | 0.00 | 91 | 1021.4 |
| 20260831015114 | 75 | 121 | 0.0 | 0.0 | 0.00 | 0.00 | 0.00 | 90 | 1021.4 |
| 20260831014609 | 75 | 121 | 0.0 | 0.0 | 0.00 | 0.00 | 0.00 | 89 | 1021.3 |
| 20260831014105 | 75 | 121 | 0.0 | 0.0 | 0.00 | 0.00 | 0.00 | 87 | 1021.3 |
| 20260831013601 | 75 | 120 | 0.0 | 0.0 | 0.00 | 0.00 | 0.00 | 87 | 1021.2 |
| 20260831013100 | 75 | 120 | 0.0 | 0.0 | 0.00 | 0.00 | 0.00 | 86 | 1021.2 |
| 20260831012554 | 76 | 120 | 0.0 | 0.0 | 0.00 | 0.00 | 0.00 | 86 | 1021.3 |
| 20260831012049 | 76 | 120 | 0.0 | 0.0 | 0.00 | 0.00 | 0.00 | 85 | 1021.4 |
| 20260831011549 | 76 | 120 | 0.0 | 0.0 | 0.00 | 0.00 | 0.00 | 85 | 1021.2 |
| 20260831011044 | 77 | 120 | 0.0 | 0.0 | 0.00 | 0.00 | 0.00 | 86 | 1021.2 |
| 20260831010539 | 77 | 120 | 0.0 | 0.0 | 0.00 | 0.00 | 0.00 | 86 | 1021.2 |
| 20260831010036 | 77 | 121 | 0.0 | 0.0 | 0.00 | 0.00 | 0.00 | 85 | 1021.2 |
| 20260831005531 | 78 | 120 | 0.0 | 0.0 | 0.00 | 0.00 | 0.00 | 84 | 1021.0 |
| 20260831005030 | 78 | 120 | 0.0 | 0.0 | 0.00 | 0.00 | 0.00 | 83 | 1021.1 |
| 20260831004527 | 78 | 120 | 0.0 | 0.0 | 0.00 | 0.00 | 0.00 | 83 | 1021.0 |
| 20260831004022 | 79 | 120 | 0.0 | 0.0 | 0.00 | 0.00 | 0.00 | 83 | 1020.9 |
| 20260831003518 | 79 | 120 | 0.0 | 0.0 | 0.00 | 0.00 | 0.00 | 81 | 1021.0 |
| 20260831003014 | 80 | 121 | 0.0 | 0.0 | 0.00 | 0.00 | 0.00 | 80 | 1020.7 |
| 20260831002512 | 81 | 121 | 0.0 | 0.0 | 0.00 | 0.00 | 0.00 | 78 | 1021.0 |
| 20260831002008 | 82 | 120 | 0.0 | 0.0 | 0.00 | 0.00 | 0.00 | 77 | 1020.8 |
| 20260831001503 | 83 | 121 | 0.0 | 0.0 | 0.00 | 0.00 | 0.00 | 74 | 1020.7 |
| 20260831001000 | 84 | 121 | 0.0 | 0.0 | 0.00 | 0.00 | 0.00 | 72 | 1020.8 |
| 20260831000455 | 85 | 121 | 0.0 | 0.0 | 0.00 | 0.00 | 0.00 | 69 | 1020.6 |
| 20260830235953 | 86 | 121 | 0.0 | 0.0 | 0.00 | 0.00 | 0.00 | 67 | 1020.8 |
| 20260830235448 | 88 | 121 | 0.0 | 0.0 | 0.00 | 0.00 | 0.00 | 62 | 1020.8 |
| 20260830234944 | 89 | 132 | 0.0 | 0.0 | 0.00 | 0.00 | 0.00 | 61 | 1020.8 |
| 20260830234438 | 90 | 132 | 0.0 | 0.0 | 0.00 | 0.00 | 0.00 | 57 | 1020.6 |
| 20260830233934 | 91 | 136 | 1.0 | 1.0 | 0.00 | 0.00 | 0.00 | 55 | 1020.7 |
| 20260830233430 | 92 | 138 | 0.0 | 1.0 | 0.00 | 0.00 | 0.00 | 53 | 1020.9 |
| 20260830232925 | 92 | 141 | 0.0 | 1.0 | 0.00 | 0.00 | 0.00 | 51 | 1020.8 |
| 20260830232420 | 92 | 139 | 0.0 | 3.0 | 0.00 | 0.00 | 0.00 | 52 | 1020.8 |
| 20260830231917 | 92 | 130 | 0.0 | 1.0 | 0.00 | 0.00 | 0.00 | 50 | 1020.8 |
| 20260830231412 | 92 | 159 | 1.0 | 3.0 | 0.00 | 0.00 | 0.00 | 50 | 1020.7 |
| 20260830230911 | 93 | 146 | 1.0 | 2.0 | 0.00 | 0.00 | 0.00 | 49 | 1020.8 |
| 20260830230407 | 93 | 149 | 1.0 | 2.0 | 0.00 | 0.00 | 0.00 | 48 | 1020.8 |
| 20260830225906 | 93 | 208 | 1.0 | 6.0 | 0.00 | 0.00 | 0.00 | 49 | 1020.7 |
| 20260830225401 | 93 | 137 | 0.0 | 3.0 | 0.00 | 0.00 | 0.00 | 49 | 1020.8 |
| 20260830224856 | 94 | 125 | 1.0 | 1.0 | 0.00 | 0.00 | 0.00 | 48 | 1020.6 |
| 20260830224355 | 93 | 159 | 1.0 | 2.0 | 0.00 | 0.00 | 0.00 | 48 | 1020.7 |
| 20260830223852 | 94 | 142 | 0.0 | 1.0 | 0.00 | 0.00 | 0.00 | 47 | 1020.5 |
| 20260830223348 | 94 | 211 | 2.0 | 3.0 | 0.00 | 0.00 | 0.00 | 46 | 1020.7 |
| 20260830222847 | 95 | 142 | 1.0 | 5.0 | 0.00 | 0.00 | 0.00 | 47 | 1020.5 |
| 20260830222343 | 96 | 257 | 3.0 | 3.0 | 0.00 | 0.00 | 0.00 | 44 | 1020.7 |
| 20260830221838 | 95 | 204 | 1.0 | 2.0 | 0.00 | 0.00 | 0.00 | 45 | 1020.6 |
| 20260830221335 | 95 | 146 | 0.0 | 2.0 | 0.00 | 0.00 | 0.00 | 45 | 1020.8 |
| 20260830220830 | 95 | 256 | 3.0 | 3.0 | 0.00 | 0.00 | 0.00 | 45 | 1020.9 |
| 20260830220329 | 95 | 155 | 1.0 | 3.0 | 0.00 | 0.00 | 0.00 | 45 | 1020.8 |
| 20260830215827 | 95 | 146 | 2.0 | 2.0 | 0.00 | 0.00 | 0.00 | 45 | 1020.9 |
| 20260830215322 | 95 | 167 | 0.0 | 3.0 | 0.00 | 0.00 | 0.00 | 45 | 1020.9 |
| 20260830214818 | 95 | 270 | 2.0 | 3.0 | 0.00 | 0.00 | 0.00 | 45 | 1020.9 |
| 20260830214313 | 94 | 165 | 1.0 | 5.0 | 0.00 | 0.00 | 0.00 | 45 | 1021.2 |
| 20260830213812 | 95 | 153 | 1.0 | 2.0 | 0.00 | 0.00 | 0.00 | 44 | 1021.1 |
| 20260830213307 | 95 | 142 | 3.0 | 5.0 | 0.00 | 0.00 | 0.00 | 44 | 1021.2 |
| 20260830212803 | 95 | 148 | 1.0 | 5.0 | 0.00 | 0.00 | 0.00 | 44 | 1021.2 |
| 20260830212259 | 96 | 116 | 2.0 | 3.0 | 0.00 | 0.00 | 0.00 | 43 | 1021.4 |
| 20260830211757 | 95 | 313 | 6.0 | 9.0 | 0.00 | 0.00 | 0.00 | 42 | 1021.4 |
| 20260830211257 | 96 | 145 | 0.0 | 3.0 | 0.00 | 0.00 | 0.00 | 43 | 1021.3 |
| 20260830210753 | 95 | 210 | 1.0 | 3.0 | 0.00 | 0.00 | 0.00 | 43 | 1021.4 |
| 20260830210252 | 95 | 163 | 1.0 | 9.0 | 0.00 | 0.00 | 0.00 | 45 | 1021.4 |
| 20260830205750 | 96 | 276 | 2.0 | 3.0 | 0.00 | 0.00 | 0.00 | 43 | 1021.4 |
| 20260830205245 | 94 | 159 | 1.0 | 5.0 | 0.00 | 0.00 | 0.00 | 44 | 1021.3 |
| 20260830204740 | 96 | 153 | 4.0 | 6.0 | 0.00 | 0.00 | 0.00 | 42 | 1021.3 |
| 20260830204239 | 95 | 138 | 1.0 | 2.0 | 0.00 | 0.00 | 0.00 | 44 | 1021.4 |
| 20260830203735 | 96 | 133 | 2.0 | 7.0 | 0.00 | 0.00 | 0.00 | 43 | 1021.5 |
| 20260830203231 | 96 | 299 | 3.0 | 6.0 | 0.00 | 0.00 | 0.00 | 41 | 1021.6 |
| 20260830202730 | 96 | 158 | 2.0 | 2.0 | 0.00 | 0.00 | 0.00 | 40 | 1021.6 |
| 20260830202226 | 96 | 218 | 1.0 | 2.0 | 0.00 | 0.00 | 0.00 | 42 | 1021.7 |
| 20260830201725 | 95 | 218 | 2.0 | 3.0 | 0.00 | 0.00 | 0.00 | 43 | 1021.8 |
| 20260830201220 | 95 | 234 | 2.0 | 6.0 | 0.00 | 0.00 | 0.00 | 43 | 1021.7 |
| 20260830200715 | 93 | 144 | 1.0 | 5.0 | 0.00 | 0.00 | 0.00 | 45 | 1021.8 |
| 20260830200214 | 95 | 262 | 1.0 | 5.0 | 0.00 | 0.00 | 0.00 | 44 | 1021.9 |
| 20260830195709 | 95 | 163 | 2.0 | 2.0 | 0.00 | 0.00 | 0.00 | 43 | 1021.8 |
| 20260830195208 | 94 | 195 | 2.0 | 5.0 | 0.00 | 0.00 | 0.00 | 46 | 1021.9 |
| 20260830194702 | 95 | 128 | 2.0 | 5.0 | 0.00 | 0.00 | 0.00 | 46 | 1021.7 |
| 20260830194201 | 95 | 199 | 1.0 | 6.0 | 0.00 | 0.00 | 0.00 | 44 | 1021.9 |
| 20260830193651 | 94 | 147 | 4.0 | 6.0 | 0.00 | 0.00 | 0.00 | 46 | 1022.1 |
| 20260830193150 | 95 | 149 | 3.0 | 8.0 | 0.00 | 0.00 | 0.00 | 46 | 1022.1 |
| 20260830192646 | 95 | 146 | 1.0 | 3.0 | 0.00 | 0.00 | 0.00 | 46 | 1021.9 |
| 20260830192141 | 95 | 142 | 2.0 | 7.0 | 0.00 | 0.00 | 0.00 | 46 | 1022.2 |
| 20260830191637 | 95 | 238 | 2.0 | 3.0 | 0.00 | 0.00 | 0.00 | 46 | 1022.2 |
| 20260830191131 | 94 | 123 | 2.0 | 6.0 | 0.00 | 0.00 | 0.00 | 47 | 1022.0 |
| 20260830190627 | 93 | 149 | 1.0 | 3.0 | 0.00 | 0.00 | 0.00 | 47 | 1022.3 |
| 20260830190121 | 91 | 244 | 1.0 | 3.0 | 0.00 | 0.00 | 0.00 | 49 | 1022.5 |
| 20260830185615 | 93 | 150 | 3.0 | 3.0 | 0.00 | 0.00 | 0.00 | 46 | 1022.5 |
| 20260830185111 | 93 | 204 | 1.0 | 3.0 | 0.00 | 0.00 | 0.00 | 47 | 1022.5 |
| 20260830184609 | 93 | 192 | 1.0 | 3.0 | 0.00 | 0.00 | 0.00 | 47 | 1022.8 |
| 20260830184104 | 94 | 188 | 4.0 | 6.0 | 0.00 | 0.00 | 0.00 | 46 | 1022.8 |
| 20260830183559 | 93 | 138 | 3.0 | 8.0 | 0.00 | 0.00 | 0.00 | 46 | 1023.1 |
| 20260830183055 | 94 | 185 | 2.0 | 5.0 | 0.00 | 0.00 | 0.00 | 45 | 1022.9 |
| 20260830182550 | 94 | 188 | 2.0 | 7.0 | 0.00 | 0.00 | 0.00 | 45 | 1023.2 |
| 20260830182046 | 92 | 132 | 0.0 | 2.0 | 0.00 | 0.00 | 0.00 | 46 | 1023.4 |
| 20260830181542 | 92 | 134 | 3.0 | 7.0 | 0.00 | 0.00 | 0.00 | 48 | 1023.3 |
| 20260830181041 | 92 | 282 | 3.0 | 5.0 | 0.00 | 0.00 | 0.00 | 47 | 1023.5 |
| 20260830180541 | 92 | 253 | 3.0 | 6.0 | 0.00 | 0.00 | 0.00 | 48 | 1023.3 |
| 20260830180040 | 93 | 151 | 0.0 | 3.0 | 0.00 | 0.00 | 0.00 | 47 | 1023.4 |
| 20260830175539 | 92 | 196 | 4.0 | 6.0 | 0.00 | 0.00 | 0.00 | 48 | 1023.7 |
| 20260830175035 | 91 | 297 | 2.0 | 5.0 | 0.00 | 0.00 | 0.00 | 50 | 1023.6 |
| 20260830174530 | 92 | 138 | 0.0 | 2.0 | 0.00 | 0.00 | 0.00 | 50 | 1023.7 |
| 20260830174025 | 92 | 136 | 1.0 | 6.0 | 0.00 | 0.00 | 0.00 | 48 | 1023.6 |
| 20260830173521 | 92 | 123 | 1.0 | 2.0 | 0.00 | 0.00 | 0.00 | 48 | 1023.7 |
| 20260830173015 | 90 | 166 | 2.0 | 6.0 | 0.00 | 0.00 | 0.00 | 52 | 1023.7 |
| 20260830172513 | 91 | 122 | 3.0 | 3.0 | 0.00 | 0.00 | 0.00 | 51 | 1023.7 |
| 20260830172008 | 93 | 272 | 3.0 | 6.0 | 0.00 | 0.00 | 0.00 | 51 | 1023.7 |
| 20260830171503 | 92 | 339 | 3.0 | 5.0 | 0.00 | 0.00 | 0.00 | 51 | 1023.6 |
| 20260830171003 | 91 | 182 | 3.0 | 3.0 | 0.00 | 0.00 | 0.00 | 51 | 1023.9 |
| 20260830170458 | 91 | 127 | 3.0 | 6.0 | 0.00 | 0.00 | 0.00 | 52 | 1023.8 |
| 20260830165956 | 93 | 148 | 0.0 | 7.0 | 0.00 | 0.00 | 0.00 | 52 | 1023.9 |
| 20260830165452 | 92 | 175 | 1.0 | 6.0 | 0.00 | 0.00 | 0.00 | 54 | 1024.0 |
| 20260830164948 | 92 | 175 | 5.0 | 7.0 | 0.00 | 0.00 | 0.00 | 55 | 1024.1 |
| 20260830164443 | 92 | 203 | 4.0 | 6.0 | 0.00 | 0.00 | 0.00 | 56 | 1024.1 |
| 20260830163940 | 91 | 150 | 5.0 | 6.0 | 0.00 | 0.00 | 0.00 | 56 | 1024.1 |
| 20260830163436 | 90 | 148 | 2.0 | 6.0 | 0.00 | 0.00 | 0.00 | 59 | 1024.3 |
| 20260830162935 | 90 | 140 | 1.0 | 5.0 | 0.00 | 0.00 | 0.00 | 57 | 1024.1 |
| 20260830162432 | 90 | 134 | 5.0 | 6.0 | 0.00 | 0.00 | 0.00 | 58 | 1024.1 |
| 20260830161932 | 90 | 123 | 2.0 | 3.0 | 0.00 | 0.00 | 0.00 | 60 | 1024.1 |
| 20260830161431 | 89 | 171 | 3.0 | 6.0 | 0.00 | 0.00 | 0.00 | 60 | 1024.1 |
| 20260830160926 | 89 | 128 | 3.0 | 6.0 | 0.00 | 0.00 | 0.00 | 59 | 1024.0 |
| 20260830160423 | 90 | 167 | 2.0 | 5.0 | 0.00 | 0.00 | 0.00 | 59 | 1024.1 |
| 20260830155917 | 90 | 136 | 2.0 | 5.0 | 0.00 | 0.00 | 0.00 | 60 | 1024.1 |
| 20260830155414 | 89 | 158 | 1.0 | 3.0 | 0.00 | 0.00 | 0.00 | 60 | 1024.0 |
| 20260830154908 | 89 | 140 | 5.0 | 6.0 | 0.00 | 0.00 | 0.00 | 60 | 1024.1 |
| 20260830154404 | 89 | 122 | 2.0 | 3.0 | 0.00 | 0.00 | 0.00 | 62 | 1024.1 |
| 20260830153901 | 88 | 170 | 2.0 | 3.0 | 0.00 | 0.00 | 0.00 | 62 | 1024.2 |
| 20260830153356 | 87 | 135 | 0.0 | 2.0 | 0.00 | 0.00 | 0.00 | 64 | 1024.2 |
| 20260830152855 | 86 | 121 | 3.0 | 5.0 | 0.00 | 0.00 | 0.00 | 67 | 1024.2 |
| 20260830152350 | 86 | 122 | 4.0 | 5.0 | 0.00 | 0.00 | 0.00 | 66 | 1024.1 |
| 20260830151844 | 86 | 128 | 2.0 | 5.0 | 0.00 | 0.00 | 0.00 | 67 | 1024.1 |
| 20260830151343 | 86 | 134 | 2.0 | 5.0 | 0.00 | 0.00 | 0.00 | 67 | 1024.0 |